{"data":{"norad_id":67771,"intl_designator":"2026-030H","name":"KUIPER-00199","alt_names":[],"object_type":"PAYLOAD","status":"ACTIVE","operator":null,"country":"US","launch_date":"2026-02-12","launch_site_code":"FRGUI","launch_vehicle":null,"mission":null,"orbit_class":"UNKNOWN","rcs_meters":null,"size_class":null,"mass_kg":null,"dimensions":null,"purposes":[],"wikipedia_slug":null,"has_3d_model":false,"image_url":null,"decayed_at":null,"tle_current":{"epoch":"2026-05-25T04:53:32.157888Z","epoch_age_seconds":60925,"freshness":"FRESH","line1":"1 67771U 26030H   26145.20384442  .00019766  00000+0  57521-3 0  9995","line2":"2 67771  51.8795 210.6674 0011304 338.0757  21.9744 15.35365365 16841","mean_motion":15.35365365,"eccentricity":0.0011304,"inclination_deg":51.8795,"raan_deg":210.6674,"arg_perigee_deg":338.0757,"mean_anomaly_deg":21.9744,"bstar":0.00057521,"rev_number":1684,"period_min":93.788751057309,"perigee_km":452.1058313877,"apogee_km":467.56511956025,"semimajor_km":6837.972475474,"source":"CELESTRAK","updated_at":"2026-05-25T13:38:07.255786Z"}}}